{"data":{"norad_id":55939,"epoch":"2026-09-20T22:00:03.000096Z","epoch_age_seconds":69980,"freshness":"FRESH","line1":"1 55939U 23037AB  26263.91670139  .00031449  00000+0  22705-2 0  9999","line2":"2 55939  70.0005 152.1251 0004020 289.2470 142.4021 15.03963414  5724","mean_motion":15.03963414,"eccentricity":0.000402,"inclination_deg":70.0005,"raan_deg":152.1251,"arg_perigee_deg":289.247,"mean_anomaly_deg":142.4021,"bstar":0.0022705,"rev_number":572,"period_min":95.747009973475,"perigee_km":551.9024272532,"apogee_km":557.47641969768,"semimajor_km":6932.8264234754,"source":"CELESTRAK","updated_at":"2026-09-21T09:00:33.327322Z"}}